Regional Weather Roundup
Issued by NWS

Home | Current Version | Previous Version | Text Only | Print | Product List | Glossary Off
Versions: 1 2 3 4 5 6 7 8 9 10 11 12 13 14 15 16 17 18 19 20 21 22 23 24 25 26 27 28 29 30 31 32 33 34 35 36 37 38 39 40 41 42 43 44 45 46 47 48 49 50

000
ASUS43 KIND 011609
RWRIN

WEATHER ROUNDUP FOR INDIANA
NATIONAL WEATHER SERVICE INDIANAPOLIS IN
1200 PM EDT SAT AUG 01 2015

NOTE: "FAIR" INDICATES FEW OR NO CLOUDS BELOW 12,000 FEET WITH NO
SIGNIFICANT WEATHER AND/OR OBSTRUCTIONS TO VISIBILITY.

* - STATION DOES NOT REPORT WEATHER SUCH AS PRECIPITATION OR FOG.

+ - STATION NOT QUALITY CONTROLLED BY THE NATIONAL WEATHER SERVICE.
    USE DATA WITH CAUTION...ESPECIALLY DEWPOINT AND RELATIVE
    HUMIDITY OBSERVATIONS.

INZ001>003-010>013-019-020-011700-
NORTHWEST INDIANA

CITY           SKY/WX    TMP DP  RH WIND       PRES   REMARKS
GARY /AIRPORT/ MOSUNNY   82  52  34 W12       30.00R
KNOX *+        SUNNY     79  50  36 NW8       30.00R
LA PORTE +     SUNNY     82  52  35 W7        30.01R
MICHIGAN CITY+ SUNNY     79  50  36 NW7       30.00R
MONTICELLO +   SUNNY     79  57  47 W8        30.02R
RENSSELAER +   SUNNY     79  54  41 W5        30.03R
VALPARAISO     SUNNY     80  54  40 W9        30.01R

$$

LMZ046-743>745-011700-
SOUTHERN LAKE MICHIGAN

STATION/POSITION TIME  TEMP    WIND        PRES    WAVE
                       AIR SEA DIR/SP/G            HT
                 (UTC) (F)     (DEG/KT/KT) (MB)    (FT)
BURNS HARBOR     1500   74     270/  6/  7 1015.9F
MICHIGAN CITY    1500   72     230/ 10/ 11   N/A
5NW MICH CITY    1600   73 74  260/  8/ 10   N/A     2

$$

INZ004-005-014>016-021>024-011700-
NORTH CENTRAL INDIANA

CITY           SKY/WX    TMP DP  RH WIND       PRES   REMARKS
ELKHART        SUNNY     81  52  36 NW7       29.99
GOSHEN         SUNNY     78  58  49 W10       29.99S
LOGANSPORT +   SUNNY     79  48  34 W7        30.03R
PERU/GRISSOM   SUNNY     79  55  43 NW7       30.02R
ROCHESTER +    SUNNY     81  54  39 W7        30.02R
SOUTH BEND     SUNNY     80  54  40 NW10      30.00R
WARSAW +       SUNNY     79  55  44 NW7       30.01R

$$

INZ006>009-017-018-025>027-011700-
NORTHEAST INDIANA

CITY           SKY/WX    TMP DP  RH WIND       PRES   REMARKS
ANGOLA *+      SUNNY     81  57  44 VRB7      29.99R
AUBURN +       SUNNY     79  52  38 NW10      30.00S
FORT WAYNE     MOSUNNY   79  56  45 NW5       30.01R
HUNTINGTON +   SUNNY     77  58  51 W7        30.01S

$$

INZ028-029-035-036-043>045-051>053-011700-
WEST CENTRAL INDIANA

CITY           SKY/WX    TMP DP  RH WIND       PRES   REMARKS
CRAWFORDSVL +  SUNNY     76  51  41 W5          N/A
GREENCASTLE +  SUNNY     77  46  33 N5        30.06R
LAFAYETTE      SUNNY     79  59  50 NW6       30.03R
TERRE HAUTE    SUNNY     81  52  36 N3        30.05S

$$

INZ030>032-037>040-046>048-054>057-064-065-011700-
CENTRAL INDIANA

CITY           SKY/WX    TMP DP  RH WIND       PRES   REMARKS
ANDERSON       SUNNY     77  50  38 NW3       30.04S
COLUMBUS       MOSUNNY   79  48  34 N7        30.04R
FISHERS *+     SUNNY     77  57  50 NW6       30.04R
FRANKFORT +    SUNNY     79  58  48 NW5       30.06R
GREENWOOD *+   SUNNY     79  46  31 NW8       30.05R
INDIANAPOLIS   MOSUNNY   80  54  40 NW12      30.03R
-EAGLE CREEK   SUNNY     79  57  46 NW8       30.04R
KOKOMO *+      SUNNY     79  55  44 NW8       30.03R
MARION +       SUNNY     77  56  47 NW7       30.03S
MT COMFORT *+  SUNNY     79  39  24 N9        30.04S
SHELBYVILLE    SUNNY     81  56  42 NW7       30.03R
ZIONSVILLE +   SUNNY     79  56  46 NW5       30.06R

$$

INZ033-034-041-042-049-050-058-059-011700-
EAST CENTRAL INDIANA

CITY           SKY/WX    TMP DP  RH WIND       PRES   REMARKS
MUNCIE         SUNNY     76  56  49 NW8       30.02S

$$

INZ060-061-067>069-081>083-085>088-011700-
SOUTHWEST INDIANA

CITY           SKY/WX    TMP DP  RH WIND       PRES   REMARKS
EVANSVILLE     SUNNY     84  57  39 N8        30.05S
HUNTINGBURG *+ SUNNY     82  59  44 N7        30.05S
WASHINGTON +   SUNNY     81  49  32 N8        30.05R

$$

INZ062-063-066-070>080-084-089>092-011700-
SOUTH CENTRAL AND SOUTHEAST INDIANA

CITY           SKY/WX    TMP DP  RH WIND       PRES   REMARKS
BLOOMINGTON    SUNNY     80  56  43 VRB5      30.06R
MADISON *+     SUNNY     79  55  44 N6        30.05S
NORTH VERNON + SUNNY     81  55  41 NW7       30.05R
SEYMOUR +      SUNNY     82  59  44 NW5       30.03S

$$



USA.gov is the U.S. government's official web portal to all federal, state and local government web resources and services.